Address 0x4a05bc53a5e4f252b33091bf9f67593438059b38

 
 
Txn Hash Method
Block
From
To
Value [Txn Fee]
0xc49c5a81fc21db6251ed6aa2cc469ba45a080eb98867aa59bc33c6ab15d166aaTransfer109613152021-09-16 10:01:136 days 1 hr ago0x4a05bc53a5e4f252b33091bf9f67593438059b38OUT0x3eea25b963d8fb76ef1fa3e0390d517891bf50970.013116032082307 BNB0.000105
0x42bc95a79a34b6598d95fed7f5dac028ce1216129c1676495465a2981d9af8f3Transfer97665902021-08-05 10:24:3748 days 1 hr ago0x4a05bc53a5e4f252b33091bf9f67593438059b38OUT CryptoBlades: SKILL Token0 BNB0.00019596
0x4364b4b5020c46dd6334c0fc024a8d7a4723f0ebbf4579464267c8708e03bb82Change Listing P...97101902021-08-03 9:46:5650 days 2 hrs ago0x4a05bc53a5e4f252b33091bf9f67593438059b38OUT 0x90099da42806b21128a094c713347c7885af79e20 BNB0.00018107
0xe381535dffe0de64e9b1c8cc37b988ba67d80fb456c8b9d36fdb8acb7c9accc8Change Listing P...97101892021-08-03 9:46:5350 days 2 hrs ago0x4a05bc53a5e4f252b33091bf9f67593438059b38OUT 0x90099da42806b21128a094c713347c7885af79e20 BNB0.00018107
0x0e01c01c4c8de2a1b575ec4d5684bc255f501888e84be4258954fbf495347b00Change Listing P...97101882021-08-03 9:46:5050 days 2 hrs ago0x4a05bc53a5e4f252b33091bf9f67593438059b38OUT 0x90099da42806b21128a094c713347c7885af79e20 BNB0.00018107
0xa3550bd93dccb24baf2b213fa74fc75745c7775d39a717f23a70f6dde3a5ae4bChange Listing P...97101852021-08-03 9:46:3850 days 2 hrs ago0x4a05bc53a5e4f252b33091bf9f67593438059b38OUT 0x90099da42806b21128a094c713347c7885af79e20 BNB0.00018107
0x312c69664c6a6d07fbfb9deb18c2609e51439d7bef00060fef0d11c1e9591c32Add Listing96962422021-08-02 21:13:5050 days 14 hrs ago0x4a05bc53a5e4f252b33091bf9f67593438059b38OUT 0x90099da42806b21128a094c713347c7885af79e20 BNB0.00110422
0x84b7f2204efb4beae6ac6cf6ca038aebd88be678489ecfa653ffe49ef54fb60dAdd Listing96962422021-08-02 21:13:5050 days 14 hrs ago0x4a05bc53a5e4f252b33091bf9f67593438059b38OUT 0x90099da42806b21128a094c713347c7885af79e20 BNB0.00117922
0x60ea05a836cba4b507cb2a624dba06746890d9b357e3fa5243e57b697d5d81eaAdd Listing96962422021-08-02 21:13:5050 days 14 hrs ago0x4a05bc53a5e4f252b33091bf9f67593438059b38OUT 0x90099da42806b21128a094c713347c7885af79e20 BNB0.00122122
0x6731aff63a64ea9c7d06f6941dcdffdac8eafae3552cbc2ca442598b0adafac3Add Listing96962412021-08-02 21:13:4750 days 14 hrs ago0x4a05bc53a5e4f252b33091bf9f67593438059b38OUT 0x90099da42806b21128a094c713347c7885af79e20 BNB0.00131722
0xcaf9c5eeb5c303ce24d7c28ad443f8770464b70bbaf5a3e12494bf9334c74e4dApprove96962372021-08-02 21:13:3550 days 14 hrs ago0x4a05bc53a5e4f252b33091bf9f67593438059b38OUT 0xc6f252c2cdd4087e30608a35c022ce490b58179b0 BNB0.000266905
0xbfeb98aadcfa64e75d9247b5ad67f4ba6fb2df6eac2ac0c45cda5f78b909b6d6Approve96962352021-08-02 21:13:2950 days 14 hrs ago0x4a05bc53a5e4f252b33091bf9f67593438059b38OUT 0xc6f252c2cdd4087e30608a35c022ce490b58179b0 BNB0.000266905
0xfd295a6c7db6e555c3c2dc62e3cd2702b91734b86c28549773e6f90aab19faaaApprove96962342021-08-02 21:13:2650 days 14 hrs ago0x4a05bc53a5e4f252b33091bf9f67593438059b38OUT 0xc6f252c2cdd4087e30608a35c022ce490b58179b0 BNB0.000266905
0xd521a0cbbaeab63d325a062c76ac6da34287581b748312e545b4713575fc478dApprove96962332021-08-02 21:13:2350 days 14 hrs ago0x4a05bc53a5e4f252b33091bf9f67593438059b38OUT 0xc6f252c2cdd4087e30608a35c022ce490b58179b0 BNB0.000266905
0x5b01427b50b7fd6e0e3511b2c645190fe4a232756114a5e89d2a3389bfb128dbClaim Xp Rewards96961892021-08-02 21:11:1150 days 14 hrs ago0x4a05bc53a5e4f252b33091bf9f67593438059b38OUT CryptoBlades: Gameplay0 BNB0.001771095
0xbd150cdee6d76cd29104c7b5804d8a12580cdb4165111bb6cfa665fad7d4819aClaim Token Rewa...96961882021-08-02 21:11:0850 days 14 hrs ago0x4a05bc53a5e4f252b33091bf9f67593438059b38OUT CryptoBlades: Gameplay0 BNB0.000269745
0x8e6abcca4f6f36bbccb9d9dec68fbfe3717791e9af53292fd5c079a694adc812Fight96476262021-08-01 3:15:5152 days 8 hrs ago0x4a05bc53a5e4f252b33091bf9f67593438059b38OUT CryptoBlades: Gameplay0 BNB0.000819325
0xc7f9b6b8c0968e444c714fef5b9910dbfe1e35c10835e63262ff5c55616bcf4eFight96476202021-08-01 3:15:3352 days 8 hrs ago0x4a05bc53a5e4f252b33091bf9f67593438059b38OUT CryptoBlades: Gameplay0 BNB0.000824395
0x611ec01528f44fb9f0963a940574fe1493a823b293fad58d53f92b95738bb6e6Fight96476142021-08-01 3:15:1552 days 8 hrs ago0x4a05bc53a5e4f252b33091bf9f67593438059b38OUT CryptoBlades: Gameplay0 BNB0.000818055
0x68f7c199c5a2863a1a28dfb0b79048de9ae88b093e4bc6bd9edb0c6e0d50af87Fight96476072021-08-01 3:14:5452 days 8 hrs ago0x4a05bc53a5e4f252b33091bf9f67593438059b38OUT CryptoBlades: Gameplay0 BNB0.00081867
0x65c7bc914d7770fe0e67045975c4c426dce0c88af98db596e62345980dc59ffbFight96439182021-08-01 0:05:2052 days 11 hrs ago0x4a05bc53a5e4f252b33091bf9f67593438059b38OUT CryptoBlades: Gameplay0 BNB0.00081982
0x275bb3001899dd6dad925aed3f5d5f090f32dd5bf3558be997d8c71e9a3e9161Fight96439112021-08-01 0:04:5952 days 11 hrs ago0x4a05bc53a5e4f252b33091bf9f67593438059b38OUT CryptoBlades: Gameplay0 BNB0.000818065
0x73aa38a4672458b85c1009d3ec3fa3039613131e3b2469881df556d06e9a18bbFight96439052021-08-01 0:04:4152 days 11 hrs ago0x4a05bc53a5e4f252b33091bf9f67593438059b38OUT CryptoBlades: Gameplay0 BNB0.00082442
0x0a254b58955e0e6af9539dddac3cea045cc98693fd5a8721a1b0d569babd3716Fight96438982021-08-01 0:04:2052 days 11 hrs ago0x4a05bc53a5e4f252b33091bf9f67593438059b38OUT CryptoBlades: Gameplay0 BNB0.00082379
0x113c6b569da5c23ddb2532d23aa36a9831e5176dad5e1c62782fb8632a591c02Fight96401702021-07-31 20:54:4652 days 14 hrs ago0x4a05bc53a5e4f252b33091bf9f67593438059b38OUT CryptoBlades: Gameplay0 BNB0.000819275
[ Download CSV Export 
Parent Txn Hash Block From To Value
Loading

Contract Name:
0 BNB

Compiler Version
0

Optimization Enabled:
0 BNB

Other Settings:
-NA-
Block Transaction Gas Used Reward
Age Block Fee Address BC Fee Address Voting Power Jailed Incoming
Block Uncle Number Difficulty Gas Used Reward
Loading
Loading
Make sure to use the "Vote Down" button for any spammy posts, and the "Vote Up" for interesting conversations.